Simultaneous Nadir Overpasses (SNOs) Predictions

Prediction of SNOs near equator between AQUA and NPP Satellite Orbit:

Table of predicted SNOs near equator for the next 14.0 days since TLE Epoch: 7/17/2015
Index Date (AQUA) Time (AQUA) AQUA Lat,Lon Date (NPP) Time (NPP) NPP Lat,Lon Distance(km) Time Diff (sec)
1 07/19/2015 14:04:32 29.98, -11.92 07/19/2015 13:55:19 30.04, -11.60 31.81 553
2 07/19/2015 14:53:54 -29.96, 155.74 07/19/2015 14:45:59 -29.97, 155.75 1.07 475
3 07/19/2015 15:36:22 4.46, -30.78 07/19/2015 15:29:33 4.46, -30.79 1.01 409
4 07/19/2015 16:21:50 9.66, 139.89 07/19/2015 16:16:13 9.68, 139.71 19.75 337
5 07/19/2015 17:10:06 -14.20, -51.49 07/19/2015 17:05:44 -14.28, -51.93 48.14 262
6 07/19/2015 17:58:13 18.72, 117.18 07/19/2015 17:55:06 18.89, 116.49 75.22 187
7 07/19/2015 18:46:28 -23.30, -74.13 07/19/2015 18:44:37 -23.47, -75.08 99.75 111
8 07/22/2015 05:31:27 -29.97, -63.65 07/22/2015 05:21:27 -30.24, -63.18 54.50 600
9 07/22/2015 06:20:58 29.99, 103.97 07/22/2015 06:12:12 30.04, 104.17 20.70 526
10 07/22/2015 07:07:53 -21.14, -86.19 07/22/2015 07:00:21 -21.14, -86.19 0.83 452
11 07/22/2015 07:49:44 -6.65, 87.47 07/22/2015 07:43:17 -6.65, 87.47 0.99 387
12 07/22/2015 08:37:50 11.22,-103.88 07/22/2015 08:32:39 11.27,-104.15 30.25 311
13 07/22/2015 09:26:06 -15.76, 64.74 07/22/2015 09:22:10 -15.86, 64.21 58.21 236
14 07/22/2015 10:14:12 20.34,-126.56 07/22/2015 10:11:32 20.48,-127.35 84.56 160
15 07/24/2015 21:47:53 -30.00, 52.23 07/24/2015 21:38:17 -30.06, 52.64 39.94 576
16 07/24/2015 22:37:23 29.97,-140.14 07/24/2015 22:29:04 29.98,-140.04 9.55 499
17 07/24/2015 23:21:35 -11.28, 31.91 07/24/2015 23:14:26 -11.28, 31.92 0.31 429
18 07/25/2015 00:05:42 -8.31,-156.28 07/24/2015 23:59:42 -8.30,-156.39 12.01 360
19 07/25/2015 00:53:49 12.82, 12.36 07/25/2015 00:49:04 12.92, 12.00 40.84 285
20 07/25/2015 01:42:05 -17.35,-179.01 07/25/2015 01:38:35 -17.51,-179.63 68.16 210
21 07/25/2015 02:30:11 21.93, -10.29 07/25/2015 02:27:57 22.12, -11.18 93.62 134
22 07/27/2015 14:04:18 -29.98, 168.13 07/27/2015 13:55:10 -30.06, 168.41 28.67 548
23 07/27/2015 14:53:28 28.76, -23.93 07/27/2015 14:45:36 28.76, -23.93 0.23 472
24 07/27/2015 15:35:07 -0.82, 150.05 07/27/2015 15:28:21 -0.82, 150.04 0.36 406
25 07/27/2015 16:21:41 -9.88, -40.05 07/27/2015 16:16:07 -9.94, -40.24 22.57 334
26 07/27/2015 17:09:48 14.40, 128.60 07/27/2015 17:05:30 14.50, 128.14 51.32 258
27 07/27/2015 17:58:03 -18.99, -62.74 07/27/2015 17:55:00 -19.15, -63.46 77.87 183
28 07/30/2015 05:31:19 29.97, 116.37 07/30/2015 05:21:21 30.10, 116.85 48.13 598
29 07/30/2015 06:20:42 -29.99, -75.98 07/30/2015 06:12:01 -30.00, -75.80 17.38 521
30 07/30/2015 07:07:25 19.91, 94.11 07/30/2015 06:59:57 19.91, 94.10 1.19 448
31 07/30/2015 07:49:22 6.96, -92.40 07/30/2015 07:43:00 6.99, -92.44 4.95 382
32 07/30/2015 08:37:38 -11.50, 76.20 07/30/2015 08:32:31 -11.58, 75.90 33.47 307
33 07/30/2015 09:25:44 16.08,-115.13 07/30/2015 09:21:53 16.20,-115.69 61.60 231
34 07/30/2015 10:14:00 -20.60, 53.52 07/30/2015 10:11:24 -20.78, 52.71 87.45 156




NCC Satellite Simultaneous Nadir Overpasses (SNOs) Prediction Service
